Flag for Botswana Weather past 2 weeks in Francistown, Botswana

Now
66 °F

Passing clouds.


Feels Like: 66 °F
Forecast: 62 / 85 °F
Wind: 6 mph from East

Location: Francistown Airport

Current Time: Apr 2, 2015 at 1:00:07 AM

Latest Report: Apr 2, 2015 at 12:00 AM


Visibility: N/A

Pressure: 30.12 "Hg

Humidity: 78%

Dew point: 59 °F

Location of FrancistownLocation

Historic Weather in Francistown — Graph

°F

Francistown temperature yesterday

Maximum temperature yesterday: 82 °F (at 2:00 PM)
Minimum temperature yesterday: 64 °F (at 6:00 AM)
Average temperature yesterday: 73 °F

Past Weeks' High & Low Weather Summary

 TemperatureHumidityPressure
High95 °F (Mar 25, 3:00 PM)100% (Mar 19, 6:00 AM)30.18 "Hg (Mar 19, 6:00 AM)
Low59 °F (Mar 19, 6:00 AM)23% (Mar 21, 5:00 PM)29.98 "Hg (Mar 24, 6:00 PM)
Average75 °F62%30.08 "Hg
* Reported Midnight between Mar 17 and Mar 18 — Midnight between Apr 1 and Apr 2, Francistown, Weather by CustomWeather, © 2015

Note: Actual official high and low records may vary slightly from our data, if they occured in-between our weather recording intervals... More about our weather records

Advertising

Francistown weather history for previous 24 hours

 ConditionsComfort  
Time TempWeatherWind HumidityBarometerVisibility
12:00 AM
Thu, Apr 2
66 °FPassing clouds.6 mph78%30.12 "HgN/A
11:00 PM
Wed, Apr 1
66 °FPassing clouds.7 mph78%30.15 "HgN/A
10:00 PM66 °FPassing clouds.5 mph73%30.15 "HgN/A
9:00 PM68 °FPassing clouds.7 mph69%30.12 "HgN/A
8:00 PM70 °FPassing clouds.7 mph64%30.12 "HgN/A
7:00 PM73 °FPassing clouds.9 mph57%30.09 "HgN/A
6:00 PM77 °FPassing clouds.12 mph51%30.09 "HgN/A
5:00 PM79 °FPartly sunny.9 mph48%30.07 "HgN/A
3:00 PM82 °FScattered clouds.17 mph42%30.09 "HgN/A
2:00 PM82 °FScattered clouds.17 mph42%30.09 "HgN/A
1:00 PM81 °FScattered clouds.10 mph45%30.12 "HgN/A
12:00 PM77 °FPartly sunny.18 mph51%30.15 "HgN/A
11:00 AM75 °FScattered clouds.15 mph57%30.18 "HgN/A
9:00 AM70 °FPartly sunny.12 mph69%30.18 "HgN/A
8:00 AM68 °FPartly sunny.12 mph73%30.18 "HgN/A
6:00 AM64 °FScattered clouds.14 mph83%30.15 "HgN/A
5:00 AM66 °FPassing clouds.9 mph83%30.12 "HgN/A
Weather by CustomWeather, © 2015

See weather overviewHow to use our weather pages